Showing default

LEGION 1, 59625

Orbit data source: Space-Track

LEGION 1, 59625 is a payload satellite owned by Maxar Intel (US) in SSO that was launched on Thu, 02 May 2024 UTC via an FALCON 9 launch vehicle from the Air Force Western Test Range (AFWTR). Payload-class satellites include a variety of spacecraft equipped with specific instruments for various scientific and technological missions. These include communications satellites like Starlink; space stations such as the ISS; scientific satellites like the Hubble; Earth observation satellites from companies like Planet Labs, Umbra, and HawkEye 360; GPS; miniature CubeSats for education and research; and military/defense satellites.

Loading next visibility...
Identifier
59625, 2024-081A
Orbit
SSO
Country
Flag of USUS
Related business
Manufacturer
Maxar Space Inf
Mission
Operational Commercial Imaging
Bus & Motor
LEGION, Unknown motor
Mass
~700 kg wet, 630 kg dry
Launch date (UTC)
2024-05-02 (2 years ago)
Launch vehicle
FALCON 9
Launch site
Air Force Western Test Range (AFWTR)
Object type
Payload
Rocket body
Debris
Shape & HBR
Box + 1 Pan, 1.5 m
Radar Cross Section
9.079 m², Large (>1 m²)

Expand to show TLE details & history
Last TLE update: 12 hours ago

TLE from 12 hours ago
0 LEGION 1
1 59625U 24081A   25311.23753200  .00008598  00000-0  43360-3 0  9995
2 59625  97.5244  26.1615 0003701 145.7032 214.4441 15.17378307 83894
Epoch: 2025-11-07T05:42Z
TLE epoch observation values (Epoch: 2025-11-07T05:42:02.764Z)
Latitude
-0.00004°
Longitude
-106.03439°
Altitude
518.955 km
Speed
7.603 km/s
True Right ascension
01h 44m 38s
True Declination
0° 00' 00"
Sunlit
Object was in full shadow at epoch
Visualization orbit readout
Latitude
Unknown
Longitude
Unknown
Altitude
Unknown
Speed
Unknown
Apparent Right ascension
Unknown
Apparent Declination
Unknown
Sunlit
N/A
Visualization observer readout
Local Sidereal Time
13:53:23
Azimuth
Unknown
Elevation
Unknown
Doppler factor
Unknown
Orbital elements
Apogee altitude
513.292 km
Perigee altitude
508.193 km
Semi-major axis
6,888.879 km
Eccentricity
0.00037
Inclination
97.5244°
RAAN
26.1615°
Arg. of periapsis
145.7032°
True anomaly
214.42012°
Mean anomaly
214.4441°
Eccentric anomaly
214.43211°
Mean motion
3.79595 °/min
Orbital period
94.84 mins
BSTAR
0.0004336
Loading maneuver chart data...
Computing Atmospheric mass density...
Loading historical data...
Loading historical data...
Loading historical data...
Loading historical data...
Loading historical data...
Loading historical data...
Loading historical data...
Other satellites on launch #81 in the year 2024 (2024-05-02 UTC)

Documentation

Showing up to 5 results
|